When you browse on this site, cookies collect data to enhance your experience and personalize the content and advertising you see.
Visit our Privacy Policy to learn more. By continuing to use the site, you agree to this use of cookies and data.
  • In Romania
  • List of Countries
  • For 7 days
  • Water Temperature
  • Satellite Maps
  • Weather Map
  • Weather Widgets
  • user-avatar
    Login

    Hourly Weather Kranston

    Today, 10 December, Monday

    Time Temperature Precipitation Wind Pressure Humidity
    00:00 -3°C° 0 mm 2 mps 764 mmHg 61%
    01:00 -3°C° 0 mm 2 mps 763 mmHg 60%
    02:00 -3°C° 0 mm 2 mps 763 mmHg 61%
    03:00 -3°C° 0 mm 2 mps 762 mmHg 61%
    04:00 -4°C° 0 mm 2 mps 762 mmHg 62%
    05:00 -4°C° 0 mm 2 mps 762 mmHg 63%
    06:00 -5°C° 0 mm 3 mps 762 mmHg 64%
    07:00 -5°C° 0 mm 3 mps 762 mmHg 66%
    08:00 -2°C° 0 mm 3 mps 762 mmHg 60%
    09:00 -2°C° 0 mm 4 mps 762 mmHg 54%
    10:00 -1°C° 0 mm 4 mps 763 mmHg 47%
    11:00 -1°C° 0 mm 4 mps 762 mmHg 44%
    12:00 0°C° 0 mm 4 mps 762 mmHg 41%
    13:00 0°C° 0 mm 4 mps 762 mmHg 37%
    14:00 +1°C° 0 mm 3 mps 762 mmHg 40%
    15:00 0°C° 0 mm 3 mps 762 mmHg 42%
    16:00 -1°C° 0 mm 2 mps 762 mmHg 45%
    17:00 -2°C° 0 mm 2 mps 763 mmHg 47%
    18:00 -3°C° 0 mm 2 mps 763 mmHg 50%
    19:00 -4°C° 0 mm 2 mps 764 mmHg 53%
    20:00 -4°C° 0 mm 2 mps 764 mmHg 54%
    21:00 -4°C° 0 mm 2 mps 764 mmHg 55%
    22:00 -4°C° 0 mm 2 mps 764 mmHg 57%
    23:00 -4°C° 0 mm 2 mps 764 mmHg 58%

    Tomorrow, 11 December, Tuesday

    Time Temperature Precipitation Wind Pressure Humidity
    00:00 -4°C° 0 mm 2 mps 764 mmHg 58%
    01:00 -5°C° 0 mm 2 mps 764 mmHg 59%
    02:00 -5°C° 0 mm 2 mps 764 mmHg 60%
    03:00 -3°C° 0 mm 1 mps 764 mmHg 61%
    04:00 -3°C° 0 mm 1 mps 764 mmHg 62%
    05:00 -3°C° 0 mm 1 mps 764 mmHg 63%
    06:00 -3°C° 0 mm 1 mps 765 mmHg 64%
    07:00 -3°C° 0 mm 1 mps 765 mmHg 65%
    08:00 -1°C° 0 mm 1 mps 765 mmHg 60%
    09:00 0°C° 0 mm 0 mps 765 mmHg 55%
    10:00 +1°C° 0 mm 0 mps 765 mmHg 50%
    11:00 +3°C° 0 mm 1 mps 764 mmHg 48%
    12:00 +3°C° 0 mm 1 mps 763 mmHg 46%
    13:00 +3°C° 0 mm 2 mps 762 mmHg 44%
    14:00 +2°C° 0 mm 2 mps 762 mmHg 49%
    15:00 +1°C° 0 mm 2 mps 762 mmHg 54%
    16:00 +1°C° 0 mm 2 mps 762 mmHg 59%
    17:00 -1°C° 0 mm 2 mps 762 mmHg 62%
    18:00 -1°C° 0 mm 2 mps 762 mmHg 66%
    19:00 -2°C° 0 mm 2 mps 762 mmHg 69%
    20:00 -2°C° 0 mm 2 mps 761 mmHg 71%
    21:00 0°C° 0 mm 1 mps 761 mmHg 73%
    22:00 0°C° 0 mm 1 mps 761 mmHg 74%
    23:00 0°C° 0 mm 1 mps 761 mmHg 75%

    Day after tomorrow, 12 December, Wednesday

    Time Temperature Precipitation Wind Pressure Humidity
    00:00 -1°C° 0 mm 1 mps 760 mmHg 75%
    01:00 -1°C° 0 mm 1 mps 760 mmHg 75%
    02:00 -1°C° 0 mm 1 mps 760 mmHg 74%
    03:00 -1°C° 0 mm 1 mps 760 mmHg 73%
    04:00 -3°C° 0 mm 2 mps 760 mmHg 72%
    05:00 -3°C° 0 mm 2 mps 760 mmHg 69%
    06:00 -3°C° 0 mm 2 mps 761 mmHg 66%
    07:00 -4°C° 0 mm 3 mps 761 mmHg 63%
    08:00 -2°C° 0 mm 3 mps 762 mmHg 59%
    09:00 -2°C° 0 mm 4 mps 762 mmHg 54%
    10:00 -1°C° 0 mm 4 mps 763 mmHg 50%
    11:00 -1°C° 0 mm 4 mps 763 mmHg 48%
    12:00 0°C° 0 mm 4 mps 763 mmHg 46%
    13:00 +1°C° 0 mm 4 mps 763 mmHg 44%
    14:00 0°C° 0 mm 4 mps 764 mmHg 48%
    15:00 0°C° 0 mm 3 mps 765 mmHg 52%
    16:00 -1°C° 0 mm 2 mps 766 mmHg 57%
    17:00 -1°C° 0 mm 2 mps 767 mmHg 59%
    18:00 -2°C° 0 mm 2 mps 768 mmHg 62%
    19:00 -3°C° 0 mm 2 mps 769 mmHg 65%
    20:00 -3°C° 0 mm 2 mps 769 mmHg 64%
    21:00 -3°C° 0 mm 2 mps 770 mmHg 64%
    22:00 -4°C° 0 mm 2 mps 770 mmHg 64%
    23:00 -4°C° 0 mm 2 mps 771 mmHg 63%

    13 December, Thursday

    Time Temperature Precipitation Wind Pressure Humidity
    00:00 -4°C° 0 mm 2 mps 771 mmHg 62%
    01:00 -4°C° 0 mm 2 mps 771 mmHg 60%
    02:00 -2°C° 0 mm 1 mps 771 mmHg 59%
    03:00 -2°C° 0 mm 1 mps 772 mmHg 59%
    04:00 -2°C° 0 mm 1 mps 772 mmHg 58%
    05:00 -2°C° 0 mm 1 mps 772 mmHg 58%
    06:00 -2°C° 0 mm 1 mps 773 mmHg 58%
    07:00 -2°C° 0 mm 1 mps 773 mmHg 58%
    08:00 -1°C° 0 mm 1 mps 773 mmHg 56%
    09:00 0°C° 0 mm 1 mps 773 mmHg 54%
    10:00 +1°C° 0 mm 2 mps 773 mmHg 52%
    11:00 +2°C° 0 mm 2 mps 773 mmHg 53%
    12:00 +3°C° 0 mm 2 mps 773 mmHg 53%
    13:00 +2°C° 0 mm 3 mps 772 mmHg 54%
    14:00 +2°C° 0 mm 3 mps 772 mmHg 59%
    15:00 +2°C° 0 mm 3 mps 772 mmHg 65%
    16:00 +2°C° 0 mm 2 mps 771 mmHg 70%
    17:00 +2°C° 0 mm 3 mps 771 mmHg 73%
    18:00 +2°C° 0 mm 3 mps 771 mmHg 76%
    19:00 +2°C° 0 mm 3 mps 771 mmHg 79%
    20:00 +2°C° 0 mm 3 mps 771 mmHg 82%
    21:00 +3°C° 0 mm 3 mps 770 mmHg 85%
    22:00 +3°C° 0 mm 3 mps 770 mmHg 87%
    23:00 +3°C° 0 mm 3 mps 769 mmHg 89%

    14 December, Friday

    Time Temperature Precipitation Wind Pressure Humidity
    00:00 +4°C° 0 mm 2 mps 769 mmHg 90%
    01:00 +5°C° 0 mm 2 mps 769 mmHg 92%
    02:00 +4°C° 0 mm 2 mps 769 mmHg 93%
    03:00 +4°C° 0 mm 2 mps 769 mmHg 94%
    04:00 +5°C° 0 mm 1 mps 768 mmHg 95%
    05:00 +4°C° 0 mm 1 mps 769 mmHg 95%
    06:00 +4°C° 0 mm 1 mps 769 mmHg 94%
    07:00 +3°C° 0 mm 1 mps 769 mmHg 94%
    08:00 +5°C° 0 mm 1 mps 769 mmHg 87%
    09:00 +7°C° 0 mm 1 mps 769 mmHg 81%
    10:00 +8°C° 0 mm 1 mps 769 mmHg 74%
    11:00 +9°C° 0 mm 1 mps 768 mmHg 72%
    12:00 +9°C° 0 mm 2 mps 767 mmHg 70%
    13:00 +10°C° 0 mm 2 mps 767 mmHg 68%
    14:00 +9°C° 0 mm 2 mps 766 mmHg 75%
    15:00 +8°C° 0 mm 2 mps 766 mmHg 81%
    16:00 +7°C° 0 mm 2 mps 766 mmHg 88%
    17:00 +6°C° 0 mm 2 mps 766 mmHg 90%
    18:00 +6°C° 0 mm 2 mps 766 mmHg 91%
    19:00 +6°C° 0 mm 2 mps 765 mmHg 93%
    20:00 +7°C° 0 mm 3 mps 765 mmHg 93%
    21:00 +7°C° 0 mm 3 mps 764 mmHg 92%
    22:00 +8°C° 0 mm 3 mps 764 mmHg 92%
    23:00 +8°C° 0.1 mm 3 mps 763 mmHg 93%

    15 December, Saturday

    Time Temperature Precipitation Wind Pressure Humidity
    00:00 +9°C° 0.1 mm 3 mps 762 mmHg 95%
    01:00 +9°C° 0.1 mm 3 mps 762 mmHg 96%
    02:00 +10°C° 0.8 mm 3 mps 761 mmHg 95%
    03:00 +10°C° 0.8 mm 3 mps 761 mmHg 94%
    04:00 +11°C° 0.8 mm 4 mps 761 mmHg 94%
    05:00 +11°C° 0.9 mm 3 mps 761 mmHg 94%
    06:00 +11°C° 0.9 mm 3 mps 761 mmHg 95%
    07:00 +10°C° 0.9 mm 3 mps 760 mmHg 95%
    08:00 +10°C° 1.1 mm 3 mps 760 mmHg 95%
    09:00 +10°C° 1.1 mm 3 mps 760 mmHg 95%
    10:00 +10°C° 1.1 mm 3 mps 760 mmHg 95%
    11:00 +10°C° 0.3 mm 3 mps 760 mmHg 95%
    12:00 +11°C° 0.3 mm 3 mps 759 mmHg 95%
    13:00 +11°C° 0.3 mm 4 mps 758 mmHg 94%
    14:00 +11°C° 0 mm 4 mps 758 mmHg 94%
    15:00 +10°C° 0 mm 5 mps 758 mmHg 93%
    16:00 +9°C° 0 mm 6 mps 757 mmHg 93%
    17:00 +9°C° 0 mm 6 mps 758 mmHg 87%
    18:00 +8°C° 0 mm 6 mps 758 mmHg 82%
    19:00 +6°C° 0 mm 7 mps 759 mmHg 76%
    20:00 +5°C° 0 mm 7 mps 759 mmHg 72%
    21:00 +5°C° 0 mm 7 mps 760 mmHg 69%
    22:00 +4°C° 0 mm 7 mps 761 mmHg 65%
    23:00 +4°C° 0 mm 7 mps 761 mmHg 65%
    Show more